[[{"header":{"parameterUnit":"m.s-1","parameterCategory":1,"la1":30.2991,"la2":30.254,"lo1":-89.0895,"lo2":-89.0444,"dy":0.0017,"dx":0.0017,"nx":28,"ny":28,"refTime":"2023-10-19T21:00:00:Z","depth":0,"parameterNumber":2,"parameterNumberName":"U-component_of_WINDS"},"data":[0,0,0,0,0,0,0,0,0,0,0,0,0,0,0,0,0,0,0,0,0,0,0,0,0,0,0,0,0,0,0,0,0,0,0,0,0,0,0,0,0,0,0,0,0,0,0,0,0,0,0,0,0,0,0,0,0,0,0.1743,0.1743,0,0.175,0.175,0.175,0.1722,0.1721,0.172,0.1719,0.1726,0.1726,0.1727,0,0,0,0,0,0,0,0,0,0,0,0,0,0.1705,0.1706,0.1743,0.1743,0.1743,0.175,0.175,0.175,0.1722,0.1721,0.172,0.1719,0.1725,0.1726,0.1727,0,0,0,0,0,0,0,0,0,0,0,0,0,0.1718,0.1706,0.1743,0.173,0.1729,0.175,0.175,0.175,0.1722,0.1721,0.1719,0.1718,0.1725,0.1726,0.1728,0.1761,0,0,0.1732,0.1733,0,0,0,0,0,0,0,0,0.1717,0.1719,0.1732,0.1731,0.173,0.1734,0.1739,0.1754,0.1722,0.1725,0.1719,0.1718,0.1729,0.173,0.1734,0.1762,0.1762,0.1732,0.1733,0.1734,0.1734,0,0,0,0,0,0,0,0.1716,0.1719,0.1746,0.1732,0.1731,0.1724,0.1724,0.1742,0.1734,0.1724,0.1722,0.1723,0.1728,0.1733,0.1734,0.1762,0.1732,0.1733,0.1734,0.1735,0.1818,0.1819,0,0,0,0,0,0,0.1717,0.1718,0.1746,0.1746,0.172,0.1725,0.1726,0.1734,0.1734,0.1732,0.1724,0.1722,0.1731,0.1732,0.1734,0.1774,0.1734,0.1735,0.1736,0.1816,0.1818,0.1819,0,0,0,0,0,0,0.1717,0.172,0.1745,0.1732,0.1734,0.1727,0.1736,0.1734,0.1739,0.1734,0.1732,0.1731,0.173,0.1732,0.1755,0.1774,0.1736,0.1737,0.1815,0.1817,0.1819,0.1853,0,0,0,0,0,0,0.1716,0.172,0.1733,0.1732,0.1735,0.1766,0.1737,0.1735,0.1741,0.1738,0.1739,0.1738,0.1729,0.1753,0.1756,0.1775,0.1738,0.1813,0.1816,0.1818,0.1851,0.1856,0.1861,0,0,0,0,0,0.1714,0.1742,0.1734,0.1737,0.1751,0.1767,0.1769,0.1759,0.1743,0.1756,0.1753,0.1738,0.1771,0.1755,0.1759,0.1778,0.1812,0.1815,0.1818,0.1848,0.1855,0.1861,0,0,0,0,0,0,0.1745,0.1742,0.1732,0.1761,0.1765,0.1762,0.1778,0.1766,0.1775,0.1771,0.1758,0.1758,0.1783,0.1783,0.1766,0.1811,0.1789,0.1793,0.1811,0.1817,0.1823,0.1822,0.1739,0,0,0,0,0,0.1756,0.1769,0.1765,0.1791,0.1793,0.1786,0.1792,0.1784,0.1787,0.1789,0.1787,0.179,0.1802,0.1809,0.1819,0.185,0.185,0.1865,0.1871,0.1875,0.1879,0.1895,0.1902,0.1829,0.1829,0.1829,0,0,0.1777,0.1776,0.1786,0.1797,0.1799,0.1813,0.1787,0.1803,0.1814,0.1791,0.1812,0.1811,0.1814,0.1841,0.1853,0.1842,0.1899,0.1879,0.1883,0.1884,0.1899,0.1906,0.1912,0.1831,0.1831,0.1831,0,0,0.1823,0.1824,0.1845,0.1848,0.1851,0.1846,0.1851,0.185,0.1849,0.187,0.1853,0.1865,0.1885,0.1888,0.1892,0.1939,0.1926,0.1942,0.1971,0.1987,0.1993,0.1998,0.2015,0.2021,0.1946,0.1946,0.1946,0,0.1848,0.1869,0.1858,0.1875,0.1881,0.1861,0.1882,0.1885,0.1891,0.1896,0.1883,0.1907,0.1907,0.1935,0.1946,0.195,0.1956,0.1942,0.1993,0.1998,0.2002,0.2018,0.2025,0.1948,0.1948,0.1948,0.1947,0,0.1901,0.1916,0.1933,0.194,0.1947,0.1966,0.1957,0.1966,0.1957,0.1953,0.1975,0.1975,0.1985,0.1991,0.1982,0.2017,0.201,0.1995,0.1972,0.2011,0.2026,0.2032,0.1951,0.195,0.195,0.1949,0,0,0.1967,0.1967,0.1974,0.1977,0.1979,0.199,0.2008,0.2018,0.2025,0.203,0.2045,0.2062,0.2049,0.2053,0.2045,0.2059,0.2096,0.2042,0.2042,0.2053,0.2135,0.2147,0.2154,0.2087,0.2088,0.2089,0.2135,0,0.2012,0.2044,0.2034,0.2066,0.208,0.2061,0.2077,0.208,0.2076,0.2087,0.2083,0.2096,0.2077,0.2079,0.2093,0.2089,0.2113,0.2086,0.2101,0.2102,0.2102,0.2162,0.2174,0.2217,0.2141,0.2142,0.2142,0,0.2069,0.2077,0.211,0.211,0.2115,0.213,0.2138,0.2149,0.2152,0.2148,0.2153,0.2142,0.2159,0.2136,0.2161,0.2143,0.2148,0.2148,0.2149,0.215,0.2125,0.2165,0.223,0.2237,0.2151,0.2151,0.215,0,0.2114,0.2133,0.2155,0.2158,0.2159,0.2169,0.217,0.2171,0.2178,0.2185,0.2189,0.2198,0.2203,0.221,0.2201,0.2185,0.2227,0.2203,0.2224,0.2225,0.2234,0.2234,0.2302,0.2237,0.2237,0.2237,0.2237,0,0.2166,0.2187,0.2176,0.2189,0.2213,0.2201,0.2224,0.2222,0.2224,0.2237,0.2221,0.2234,0.2221,0.2232,0.2225,0.2247,0.2249,0.2247,0.2245,0.2248,0.2249,0.2252,0.2249,0.2239,0.2239,0.2238,0.2238,0,0.2221,0.2213,0.2237,0.2235,0.2235,0.2253,0.2251,0.2264,0.2259,0.2276,0.2279,0.2272,0.2285,0.2276,0.2289,0.2284,0.2312,0.2306,0.2312,0.231,0.2332,0.233,0.2405,0.2414,0.2344,0.2344,0.2345,0,0.2254,0.227,0.2271,0.2278,0.228,0.2293,0.2299,0.2288,0.2295,0.23,0.2312,0.2323,0.2332,0.2353,0.2348,0.2358,0.2352,0.2377,0.2353,0.2357,0.2353,0.2352,0.2354,0.2382,0.2383,0.2384,0.2384,0,0.2315,0.2311,0.2321,0.233,0.2338,0.2345,0.235,0.2357,0.2346,0.2355,0.2368,0.2374,0.2387,0.2399,0.2407,0.2407,0.2394,0.2392,0.2398,0.2402,0.2405,0.2404,0.2325,0.239,0.239,0.2389,0.2389,0.2389,0.236,0.2374,0.2376,0.2388,0.2391,0.2396,0.2408,0.2405,0.2415,0.2425,0.2418,0.2433,0.2435,0.2445,0.2447,0.2458,0.2448,0.2456,0.2458,0.246,0.2463,0.2402,0.246,0.2459,0.2459,0.2459,0.2459,0,0.242,0.2421,0.2432,0.244,0.2449,0.2436,0.2441,0.245,0.2464,0.2467,0.2476,0.2491,0.2501,0.2498,0.2508,0.2518,0.2512,0.2521,0.252,0.252,0.2472,0.2466,0.2525,0.2525,0.2525,0.2525,0.2525,0.2525,0.2452,0.2475,0.2471,0.2494,0.2494,0.2509,0.2513,0.2518,0.2521,0.2538,0.2547,0.2545,0.2546,0.2555,0.2565,0.2563,0.2568,0.2579,0.2575,0.253,0.2524,0.2518,0.2512,0.258,0.258,0.2623,0.2623,0.2624]},{"header":{"parameterUnit":"m.s-1","parameterCategory":1,"la1":30.2991,"la2":30.254,"lo1":-89.0895,"lo2":-89.0444,"dy":0.0017,"dx":0.0017,"nx":28,"ny":28,"refTime":"2023-10-19T21:00:00:Z","depth":0,"parameterNumber":3,"parameterNumberName":"V-component_of_WINDS"},"data":[0,0,0,0,0,0,0,0,0,0,0,0,0,0,0,0,0,0,0,0,0,0,0,0,0,0,0,0,0,0,0,0,0,0,0,0,0,0,0,0,0,0,0,0,0,0,0,0,0,0,0,0,0,0,0,0,0,0,4.3315,4.3315,0,4.3293,4.3293,4.3293,4.3193,4.3191,4.3188,4.3186,4.3163,4.3165,4.3167,0,0,0,0,0,0,0,0,0,0,0,0,0,4.3274,4.3275,4.3315,4.3315,4.3315,4.3293,4.3293,4.3293,4.3193,4.3191,4.3188,4.3185,4.3163,4.3165,4.3167,0,0,0,0,0,0,0,0,0,0,0,0,0,4.3276,4.3275,4.3316,4.3263,4.3258,4.3293,4.3293,4.3292,4.3194,4.3191,4.3187,4.3184,4.3162,4.3165,4.3167,4.3251,0,0,4.3174,4.3175,0,0,0,0,0,0,0,0,4.3276,4.3277,4.3271,4.3267,4.3261,4.3242,4.327,4.3279,4.3195,4.3218,4.3186,4.3182,4.3193,4.3192,4.3196,4.325,4.3249,4.3174,4.3176,4.3177,4.3177,0,0,0,0,0,0,0,4.3276,4.3278,4.3307,4.3271,4.3265,4.3241,4.3237,4.3271,4.3225,4.3216,4.3209,4.3208,4.3189,4.3194,4.3194,4.3249,4.3174,4.3176,4.3178,4.3179,4.3373,4.3377,0,0,0,0,0,0,4.3283,4.3278,4.3307,4.3306,4.326,4.3244,4.324,4.3252,4.3225,4.3217,4.3211,4.3203,4.3191,4.3192,4.3193,4.3291,4.3177,4.3179,4.318,4.337,4.3374,4.3378,0,0,0,0,0,0,4.3282,4.3287,4.3308,4.329,4.3291,4.3249,4.3263,4.3253,4.3257,4.322,4.3212,4.3223,4.3189,4.319,4.3238,4.3289,4.318,4.3182,4.3365,4.3371,4.3376,4.3487,0,0,0,0,0,0,4.3282,4.3287,4.3318,4.3292,4.3292,4.3353,4.3266,4.3255,4.3262,4.3252,4.323,4.3223,4.3186,4.3235,4.324,4.329,4.3184,4.336,4.3368,4.3374,4.3479,4.3496,4.3511,0,0,0,0,0,4.3281,4.335,4.332,4.3324,4.333,4.3356,4.3357,4.3312,4.3266,4.3298,4.3274,4.3224,4.3283,4.3241,4.3246,4.3297,4.3357,4.3366,4.3374,4.3472,4.3493,4.351,0,0,0,0,0,0,4.3382,4.3345,4.3312,4.3374,4.3369,4.3339,4.3377,4.3336,4.3343,4.3334,4.3278,4.3274,4.3331,4.3319,4.3273,4.3378,4.3311,4.3321,4.3384,4.3404,4.3419,4.3421,4.3186,0,0,0,0,0,4.3412,4.3436,4.3402,4.3461,4.346,4.342,4.3429,4.3396,4.3388,4.3385,4.3365,4.336,4.3377,4.339,4.3403,4.3477,4.3472,4.3515,4.3531,4.3544,4.3553,4.3593,4.3612,4.3406,4.3406,4.3406,0,0,4.3473,4.3456,4.3474,4.3481,4.3473,4.35,4.3418,4.3449,4.3469,4.339,4.3434,4.342,4.3411,4.3472,4.3498,4.3464,4.3609,4.3555,4.3566,4.3568,4.3604,4.3623,4.3641,4.3412,4.3411,4.341,0,0,4.3599,4.3588,4.3636,4.3631,4.362,4.3593,4.3606,4.3583,4.357,4.3614,4.3556,4.3579,4.3609,4.3606,4.3608,4.3736,4.369,4.3742,4.3825,4.3864,4.388,4.3895,4.3941,4.3958,4.3751,4.3751,4.3752,0,4.3676,4.3714,4.3666,4.3702,4.3707,4.3638,4.3688,4.3684,4.3679,4.3685,4.3646,4.3685,4.3673,4.3734,4.3766,4.3769,4.3782,4.3744,4.3882,4.3896,4.3908,4.3952,4.397,4.3758,4.3757,4.3756,4.3756,0,4.3811,4.3838,4.3878,4.3876,4.3886,4.3928,4.3888,4.3904,4.387,4.3848,4.3895,4.3879,4.389,4.3902,4.3869,4.3958,4.3938,4.3892,4.3823,4.3935,4.3975,4.3992,4.3767,4.3765,4.3763,4.3761,0,0,4.3997,4.3971,4.3986,4.3985,4.397,4.3991,4.4031,4.4042,4.4057,4.4056,4.4089,4.4118,4.4076,4.4079,4.4045,4.408,4.4184,4.4029,4.4028,4.4059,4.4283,4.4319,4.4339,4.4154,4.4157,4.4159,4.4285,0,4.4118,4.4185,4.4145,4.4218,4.4244,4.418,4.4215,4.421,4.4191,4.421,4.4189,4.4211,4.4153,4.4155,4.4186,4.4165,4.4228,4.4155,4.4185,4.4186,4.4189,4.4359,4.4396,4.4515,4.43,4.4303,4.4304,0,4.4267,4.4275,4.4351,4.4333,4.4343,4.4375,4.4383,4.4402,4.4396,4.4379,4.4384,4.4343,4.4382,4.4315,4.4369,4.432,4.433,4.4322,4.4325,4.4326,4.4252,4.4366,4.4551,4.457,4.4329,4.4327,4.4325,0,4.4397,4.4426,4.4476,4.4477,4.4458,4.4482,4.4475,4.4465,4.4475,4.4483,4.4489,4.45,4.4507,4.4517,4.448,4.4435,4.4539,4.4469,4.4528,4.4529,4.4552,4.4551,4.4743,4.4558,4.4558,4.4558,4.4557,0,4.4536,4.4586,4.4535,4.4565,4.462,4.4573,4.4628,4.4614,4.4607,4.4635,4.458,4.4607,4.4557,4.4579,4.4551,4.46,4.4603,4.4592,4.4584,4.4597,4.4599,4.4603,4.4594,4.4562,4.4561,4.4561,4.456,0,4.469,4.4658,4.4708,4.4686,4.4682,4.4723,4.4705,4.4733,4.4711,4.4746,4.4752,4.4718,4.4741,4.4706,4.4725,4.4706,4.4775,4.4754,4.4778,4.4772,4.4833,4.4828,4.5034,4.5059,4.4858,4.486,4.4862,0,4.4781,4.4818,4.4801,4.4816,4.4812,4.4837,4.4847,4.4804,4.4817,4.4815,4.4843,4.4863,4.4876,4.4917,4.4893,4.4909,4.4888,4.4959,4.489,4.4903,4.489,4.4889,4.4893,4.4973,4.4976,4.4978,4.4979,0,4.4946,4.4929,4.4946,4.4959,4.4974,4.4981,4.4985,4.5,4.4955,4.4973,4.4997,4.5007,4.5028,4.5049,4.5058,4.5051,4.5009,4.5002,4.5016,4.503,4.5043,4.5038,4.4817,4.4997,4.4995,4.4994,4.4993,4.4992,4.5071,4.5102,4.5096,4.5118,4.5116,4.5122,4.5148,4.513,4.515,4.5164,4.5137,4.5168,4.5163,4.5172,4.517,4.5194,4.5163,4.5184,4.5189,4.5195,4.5205,4.5039,4.5196,4.5195,4.5195,4.5194,4.5194,0,4.5234,4.5228,4.5249,4.5257,4.5275,4.5234,4.5236,4.5254,4.5282,4.5282,4.5296,4.5325,4.5345,4.5325,4.5341,4.5365,4.5346,4.537,4.5368,4.5368,4.5231,4.5218,4.5386,4.5386,4.5386,4.5386,4.5386,4.5386,4.5321,4.5372,4.5355,4.5405,4.5398,4.5429,4.5434,4.5439,4.5438,4.5473,4.549,4.5477,4.5469,4.5485,4.5502,4.5495,4.5504,4.5536,4.5523,4.5396,4.5377,4.5359,4.5346,4.5538,4.5539,4.5657,4.5658,4.5659]}]]